Wind_Speed
7 7 7 7 6 6 6 6 6 5 5 4 4 4 3 3 3 3 3 3 4 4 3 3 2 2 2 3 2 2 2 2 2 3 3 2 2 3 2 2 2 2 3
7 8 8 8 7 7 8 8 7 7 6 6 5 5 5 4 4 5 5 5 4 4 4 4 3 4 4 4 3 3 2 2 2 2 3 3 3 2 2 1 1 2 3
8 8 9 9 9 9 9 9 9 8 7 7 6 6 6 6 6 6 6 6 6 5 6 6 5 5 5 5 5 4 4 3 3 3 3 4 4 4 3 3 3 3 3
7 8 8 8 9 9 10 10 10 10 9 8 8 7 7 7 7 7 7 8 8 7 8 7 6 6 6 6 6 6 5 5 5 4 4 4 5 5 5 5 5 5 5
7 7 8 8 9 10 11 11 11 11 10 10 9 9 9 8 8 8 8 9 9 9 8 8 7 7 7 7 7 7 8 7 7 7 6 6 6 6 6 6 6 6 6
6 7 8 8 9 9 10 11 11 12 11 11 10 10 10 10 9 9 9 9 9 9 9 8 8 8 8 8 8 9 8 8 8 8 8 8 8 8 8 8 7 7 8
5 6 7 7 8 8 8 9 10 11 11 11 11 11 10 10 10 9 9 9 9 9 9 8 8 8 8 8 9 9 10 9 9 10 9 9 9 9 9 9 9 9 8
5 5 6 6 6 6 7 7 8 9 10 11 11 10 11 11 10 10 10 10 10 10 10 10 10 9 9 9 9 9 10 9 10 10 10 10 10 10 10 10 10 10 9
4 4 5 5 5 5 5 5 6 8 9 10 10 10 11 11 11 11 11 11 11 11 10 10 10 10 10 10 10 10 10 10 10 10 11 11 11 11 11 11 11 11 11
3 4 4 4 5 5 4 4 5 6 7 8 9 10 11 11 11 11 11 11 12 12 12 11 11 11 11 11 10 10 10 10 10 10 11 11 12 12 12 13 13 13 12
4 4 5 5 4 4 5 5 5 6 7 8 9 9 10 10 10 11 11 11 12 12 13 12 12 12 12 11 11 11 11 11 11 11 11 11 12 13 14 14 14 14 13
4 4 4 4 4 4 4 5 5 6 6 7 8 8 9 10 10 10 11 11 12 12 12 12 13 12 12 12 12 12 11 11 11 11 11 11 11 12 13 14 14 14 13
4 4 3 3 4 4 4 5 5 5 6 6 7 7 8 9 10 10 10 11 11 11 12 12 13 12 13 12 12 12 12 12 12 12 12 12 12 12 13 13 13 14 14
4 3 3 3 3 3 4 5 5 5 5 6 6 7 8 8 9 9 10 10 10 10 11 11 11 12 13 13 13 13 13 13 12 13 12 12 12 13 13 13 13 13 13
4 3 3 3 4 4 4 5 5 5 6 7 7 7 8 9 9 9 9 9 9 10 10 11 11 11 12 13 13 14 13 13 14 13 13 13 13 13 14 13 13 12 13
3 3 4 4 4 5 5 5 6 6 6 6 7 7 8 8 9 9 9 9 10 10 10 11 11 11 12 12 13 13 13 13 13 13 14 14 14 13 14 14 14 13 14
4 4 4 4 5 5 5 5 6 6 7 7 7 7 8 8 9 9 10 10 10 10 11 11 11 11 11 12 13 13 12 13 13 13 13 14 13 13 14 14 15 15 15
4 4 4 5 5 5 6 6 6 6 6 6 7 7 7 8 8 8 9 9 9 9 10 11 11 11 11 11 12 12 12 12 13 13 13 13 14 14 14 14 15 15 16
4 4 5 5 6 6 6 6 6 6 7 7 7 7 7 7 7 8 8 8 8 8 9 9 10 10 11 12 12 11 12 12 13 13 13 13 14 14 15 15 15 15 15
5 5 5 6 6 6 6 7 7 7 7 7 8 8 8 8 8 8 9 8 8 9 9 9 9 10 11 11 11 11 12 12 12 13 13 13 13 14 14 15 15 15 15
5 6 6 7 7 7 7 7 7 7 7 8 8 8 8 9 9 9 10 9 9 9 9 10 10 10 10 11 11 12 12 12 12 12 12 13 13 14 14 14 14 15 15
6 6 6 7 7 7 7 7 7 8 8 8 8 8 8 9 9 10 10 10 10 10 10 10 10 10 10 11 11 12 12 13 13 13 13 13 14 14 14 13 14 15 15
7 7 7 7 7 7 8 8 8 8 8 8 8 9 9 9 9 10 10 10 10 11 11 11 10 10 11 12 12 12 12 13 13 13 13 13 14 14 14 14 14 14 14
9 9 8 8 8 9 9 9 9 9 9 9 9 9 9 9 10 11 11 11 11 11 12 12 12 12 12 12 12 13 13 13 13 14 14 15 15 15 15 15 15 14 15
10 10 10 10 10 10 10 9 9 10 10 10 10 10 10 10 11 11 11 12 12 12 13 13 13 13 13 13 13 13 14 13 14 14 15 15 16 16 16 16 16 16 16
12 12 11 11 11 11 11 11 10 11 11 11 11 11 11 11 12 12 12 13 13 13 14 14 14 14 14 14 13 14 14 14 14 14 15 15 16 17 17 17 17 17 17
Wind_Direction
231 230 226 225 227 235 238 237 236 237 234 230 227 222 222 220 213 206 204 189 183 184 187 187 181 174 181 183 179 167 163 163 166 174 180 177 167 167 158 151 171 194 193
233 235 233 232 234 238 241 243 243 242 244 243 238 233 234 234 225 227 217 212 206 199 201 208 221 214 214 219 207 200 202 213 207 205 210 216 210 200 191 196 227 226 220
237 237 232 235 236 240 243 243 244 242 246 247 245 242 243 240 234 238 236 226 226 222 220 224 233 231 227 230 226 221 224 238 231 228 229 230 228 219 226 237 237 239 240
238 238 236 239 240 244 246 246 246 244 244 245 245 244 246 245 243 245 245 237 237 238 233 237 239 244 235 235 241 241 242 247 248 248 247 247 241 237 240 245 248 243 244
239 239 242 241 243 246 248 249 248 244 243 243 244 244 247 247 246 246 246 244 241 242 239 241 239 244 241 244 246 246 245 246 248 249 249 248 250 250 253 255 258 254 250
248 244 243 243 245 250 251 251 250 244 241 241 241 243 246 247 246 246 247 247 245 244 242 245 241 242 245 247 247 246 246 249 249 250 252 251 254 256 256 257 260 260 256
256 247 245 245 249 253 255 253 247 241 238 239 241 243 244 245 247 247 246 247 247 245 249 250 244 243 245 248 248 248 247 250 248 249 252 253 254 256 256 257 257 256 258
258 253 250 249 253 257 260 253 242 235 234 236 239 241 242 242 243 246 247 247 247 248 251 250 249 247 247 249 250 251 247 251 252 249 251 252 251 252 254 257 257 256 258
259 254 251 252 259 260 262 252 236 231 233 235 236 237 238 240 242 246 247 249 250 249 251 252 248 244 247 249 249 250 250 251 253 254 256 255 254 255 254 256 257 258 259
267 260 260 263 263 260 261 257 241 236 235 234 235 236 236 238 243 246 248 252 251 251 251 252 247 244 245 247 249 251 253 253 250 250 254 255 256 256 256 257 259 260 262
273 271 271 271 267 261 260 258 251 244 241 239 237 238 239 241 244 247 248 250 252 253 252 250 247 245 246 248 251 253 255 258 254 254 256 256 257 258 258 258 257 257 261
276 277 276 269 272 266 261 258 254 253 251 247 244 242 243 244 245 245 247 251 253 252 249 248 249 247 247 249 252 254 257 259 258 256 258 260 260 262 260 258 257 257 259
280 281 281 277 274 271 269 264 260 256 253 248 244 244 244 243 243 243 246 249 251 251 249 247 249 250 249 250 253 255 257 259 260 261 260 261 262 263 264 263 260 261 261
276 271 275 277 279 280 280 275 265 257 252 247 246 246 244 242 243 243 246 250 251 252 252 252 251 252 249 248 251 255 258 259 260 262 263 264 264 265 266 266 264 263 262
282 275 272 273 274 277 278 275 266 259 253 254 253 250 248 247 246 245 247 248 250 251 254 256 253 255 248 250 253 257 258 262 262 263 263 264 266 264 263 266 267 266 264
291 286 279 272 276 281 279 277 273 266 259 256 256 255 248 247 247 248 250 251 253 254 257 260 258 256 254 256 256 258 259 261 261 262 263 262 264 265 263 264 264 264 263
293 290 284 281 283 284 283 281 276 270 263 259 258 257 250 248 247 248 251 254 257 258 260 261 259 261 259 257 257 257 259 260 261 262 264 262 264 266 265 263 263 263 263
292 288 286 286 286 285 285 284 281 273 266 263 260 259 254 251 250 250 252 256 258 260 263 262 260 262 264 262 261 261 261 263 263 263 266 265 264 265 266 266 265 264 263
286 285 284 284 283 283 283 282 280 273 267 266 265 262 257 252 251 251 250 257 259 261 263 264 263 265 267 265 264 263 266 267 266 266 266 270 269 267 267 266 266 266 266
286 287 290 289 286 285 285 283 278 274 270 270 268 262 260 255 253 254 252 254 255 257 259 262 263 265 265 264 262 263 266 266 267 268 269 271 272 269 268 265 266 265 266
286 286 288 289 288 286 285 285 281 276 273 271 270 266 262 258 256 254 254 255 256 257 259 261 264 264 263 264 264 264 264 265 268 270 270 271 271 271 268 266 266 266 265
284 284 287 288 285 283 282 285 281 278 276 276 272 269 267 262 258 255 256 259 258 259 261 265 264 262 264 263 265 267 267 266 268 270 270 271 271 272 269 267 269 268 268
278 283 282 284 280 281 281 282 286 283 278 277 273 269 268 264 259 257 258 259 261 262 264 264 265 265 265 268 268 269 268 269 269 271 272 273 274 273 271 271 271 269 270
270 277 278 280 278 280 282 283 284 284 276 274 274 271 269 268 263 261 262 263 263 264 265 266 265 266 267 269 269 268 270 270 270 272 274 274 274 274 275 274 271 271 273
267 271 274 276 276 278 280 282 282 280 276 275 274 272 269 267 265 264 266 267 266 264 264 265 264 266 269 270 271 271 272 273 276 274 275 275 274 274 275 272 269 270 271
267 268 271 274 273 274 277 279 280 280 278 277 275 273 272 270 268 267 267 267 267 266 265 265 265 268 270 271 272 273 274 276 279 278 276 275 275 275 275 273 270 269 270
Height
5860 5860 5861 5862 5863 5863 5864 5865 5866 5866 5867 5867 5868 5868 5869 5870 5871 5872 5873 5873 5874 5875 5876 5876 5877 5878 5879 5880 5880 5881 5881 5882 5882 5883 5884 5885 5885 5886 5886 5886 5887 5888 5888
5859 5859 5860 5861 5861 5862 5863 5864 5865 5865 5866 5866 5867 5868 5869 5869 5870 5871 5872 5873 5874 5875 5875 5876 5877 5878 5879 5879 5880 5881 5881 5882 5882 5883 5884 5885 5885 5886 5886 5886 5887 5887 5888
5857 5858 5859 5859 5860 5861 5861 5862 5863 5864 5864 5865 5866 5867 5868 5868 5869 5871 5871 5872 5873 5874 5875 5876 5877 5878 5878 5879 5879 5880 5881 5882 5882 5883 5884 5884 5885 5885 5886 5886 5887 5887 5888
5856 5856 5857 5858 5858 5859 5859 5860 5861 5862 5863 5863 5864 5865 5867 5867 5868 5869 5870 5871 5872 5873 5874 5875 5876 5877 5878 5878 5879 5880 5880 5881 5882 5883 5883 5884 5884 5885 5885 5886 5886 5886 5887
5854 5855 5856 5856 5857 5857 5858 5858 5858 5859 5860 5862 5863 5864 5865 5866 5867 5868 5869 5870 5871 5872 5873 5874 5875 5876 5876 5877 5878 5879 5879 5880 5881 5882 5882 5883 5883 5884 5884 5885 5885 5885 5885
5853 5854 5854 5855 5855 5855 5855 5854 5854 5855 5857 5859 5861 5862 5863 5864 5865 5866 5867 5868 5869 5870 5872 5873 5874 5874 5875 5876 5877 5877 5878 5879 5879 5880 5881 5882 5882 5883 5883 5884 5884 5884 5884
5852 5852 5853 5853 5853 5853 5853 5851 5851 5852 5855 5857 5859 5860 5862 5863 5864 5864 5866 5867 5868 5869 5870 5871 5872 5873 5874 5874 5875 5876 5876 5877 5878 5878 5879 5880 5881 5881 5882 5882 5882 5882 5882
5851 5851 5851 5851 5852 5852 5851 5850 5851 5852 5854 5855 5857 5858 5860 5861 5862 5863 5864 5865 5866 5867 5868 5869 5870 5871 5872 5873 5873 5874 5874 5875 5876 5877 5877 5878 5879 5879 5880 5880 5880 5880 5881
5850 5850 5850 5850 5851 5851 5850 5850 5850 5851 5853 5854 5855 5856 5858 5859 5860 5861 5862 5863 5864 5865 5866 5867 5868 5869 5870 5871 5871 5872 5873 5873 5874 5875 5875 5876 5877 5877 5878 5878 5878 5878 5879
5849 5849 5850 5850 5850 5850 5850 5850 5850 5851 5852 5853 5854 5854 5856 5857 5858 5859 5860 5861 5862 5862 5864 5865 5866 5867 5868 5869 5869 5870 5871 5871 5872 5873 5873 5874 5874 5875 5875 5876 5876 5876 5876
5849 5849 5849 5849 5849 5849 5849 5850 5850 5850 5851 5851 5852 5853 5854 5855 5856 5857 5858 5858 5859 5860 5861 5862 5863 5864 5865 5866 5867 5868 5869 5869 5870 5871 5871 5871 5872 5872 5873 5873 5873 5874 5874
5848 5848 5848 5848 5848 5848 5848 5849 5849 5849 5850 5850 5851 5851 5852 5853 5854 5855 5856 5856 5857 5858 5859 5860 5861 5862 5863 5864 5865 5866 5867 5867 5868 5868 5869 5869 5869 5870 5870 5870 5871 5871 5871
5847 5847 5847 5847 5847 5847 5847 5848 5848 5848 5848 5849 5849 5850 5851 5851 5852 5853 5854 5854 5855 5856 5857 5858 5859 5860 5861 5862 5863 5864 5864 5865 5865 5866 5866 5867 5867 5867 5867 5867 5868 5868 5868
5846 5846 5846 5846 5847 5847 5847 5847 5847 5847 5847 5848 5848 5849 5849 5850 5851 5851 5852 5852 5853 5854 5855 5855 5856 5857 5858 5859 5860 5861 5862 5862 5862 5863 5863 5864 5864 5864 5865 5865 5865 5865 5866
5845 5845 5846 5846 5846 5846 5846 5846 5846 5846 5846 5846 5847 5847 5848 5848 5849 5849 5850 5851 5851 5852 5853 5853 5854 5855 5855 5856 5857 5858 5859 5859 5860 5860 5861 5861 5861 5861 5862 5862 5862 5863 5863
5845 5845 5845 5845 5845 5845 5845 5845 5845 5845 5845 5845 5845 5846 5846 5847 5847 5848 5848 5849 5849 5850 5851 5851 5852 5852 5853 5854 5854 5855 5856 5856 5857 5857 5857 5858 5858 5858 5859 5859 5860 5860 5860
5844 5844 5844 5844 5844 5844 5844 5843 5843 5843 5843 5843 5844 5844 5844 5845 5845 5846 5846 5847 5847 5848 5848 5849 5849 5850 5851 5851 5852 5852 5853 5853 5854 5854 5854 5854 5855 5855 5856 5856 5856 5857 5857
5843 5843 5843 5843 5842 5842 5842 5842 5842 5842 5842 5842 5842 5842 5843 5843 5843 5844 5844 5845 5845 5846 5846 5846 5847 5847 5848 5848 5849 5849 5850 5850 5851 5851 5851 5851 5852 5852 5852 5853 5853 5853 5854
5842 5841 5841 5841 5841 5841 5841 5841 5841 5841 5840 5840 5840 5841 5841 5841 5842 5842 5842 5843 5843 5844 5844 5844 5844 5844 5845 5845 5846 5846 5847 5847 5848 5848 5848 5848 5848 5849 5849 5849 5850 5850 5850
5841 5840 5840 5840 5840 5840 5840 5839 5839 5839 5839 5839 5839 5839 5839 5839 5840 5840 5840 5841 5841 5841 5842 5842 5842 5842 5842 5842 5843 5844 5844 5844 5844 5845 5845 5845 5845 5845 5846 5846 5846 5846 5847
5840 5839 5839 5839 5839 5838 5838 5838 5838 5837 5837 5837 5837 5837 5837 5837 5837 5838 5838 5839 5839 5839 5839 5839 5840 5840 5840 5840 5840 5841 5841 5841 5841 5841 5842 5842 5842 5842 5842 5842 5842 5843 5843
5838 5838 5837 5837 5837 5836 5836 5836 5836 5835 5835 5835 5835 5834 5835 5835 5835 5835 5836 5836 5836 5837 5837 5837 5837 5837 5837 5837 5838 5838 5838 5839 5838 5838 5838 5838 5838 5838 5839 5839 5839 5839 5839
5836 5836 5836 5835 5835 5835 5834 5834 5833 5833 5833 5833 5832 5832 5832 5832 5833 5833 5833 5833 5834 5834 5834 5834 5834 5834 5835 5835 5835 5835 5835 5835 5835 5835 5835 5835 5835 5835 5835 5835 5835 5835 5835
5834 5834 5833 5833 5833 5832 5832 5831 5831 5831 5830 5830 5830 5830 5830 5830 5830 5830 5830 5830 5831 5831 5831 5831 5831 5831 5831 5832 5832 5832 5832 5832 5832 5832 5832 5831 5831 5831 5831 5831 5831 5831 5831
5831 5831 5831 5831 5830 5830 5829 5829 5828 5828 5828 5828 5827 5827 5827 5827 5827 5827 5827 5827 5827 5828 5828 5828 5828 5828 5828 5828 5828 5828 5828 5828 5828 5828 5828 5828 5827 5827 5827 5827 5827 5827 5827
5828 5828 5828 5827 5827 5827 5826 5826 5826 5825 5825 5825 5824 5824 5824 5824 5824 5824 5824 5824 5824 5824 5824 5824 5824 5824 5824 5824 5824 5824 5824 5824 5824 5824 5824 5823 5823 5823 5822 5822 5822 5822 5822